Tracking 32579 objects as of 16-Dec-2025
HD Live streaming from Space Station
objects crossing your sky now

SL-12 R/B(AUX MOTOR)

Track SL-12 R/B(AUX MOTOR) now!
10-day predictions


NORAD ID: 13608
Int'l Code: 1982-100F
Perigee: 265.1 km
Apogee: 6,838.1 km
Inclination: 52.0 °
Period: 163.9 minutes
Semi major axis: 9922 km
RCS: 0.6227 m2 (medium)
Launch date: October 12, 1982
Source: Commonwealth of Independent States (former USSR) (CIS)
Launch site: TYURATAM MISSILE AND SPACE COMPLEX (TTMTR)

Note: This is a ROCKET BODY
Your satellite tracking list
Your tracking list is empty




NASA's NSSDC Master Catalog

Two Line Element Set (TLE):
1 13608U 82100F   25349.82702215  .00036312  00000-0  12655-2 0  9995
2 13608  52.0275 156.7509 3312153 183.5394 173.4817  8.78344716970066
Source of the keplerian elements: AFSPC